Regional Weather Roundup
Issued by NWS State College, PA

Home | Current Version | Previous Version | Graphics & Text | Print | Product List | Glossary On
Versions: 1 2 3 4 5 6 7 8 9 10 11 12 13 14 15 16 17 18 19 20 21 22 23 24 25 26 27 28 29 30 31 32 33 34 35 36 37 38 39 40 41 42 43 44 45 46 47 48 49 50
000
ASUS41 KCTP 300910
RWRCTP

REGIONAL WEATHER ROUNDUP
NATIONAL WEATHER SERVICE STATE COLLEGE PA
500 AM EDT MON MAR 30 2015

Note: "fair" indicates few or no clouds below 12,000 feet with no
significant weather and/or obstructions to visibility.

* = STATION THAT DOES NOT REPORT PRECIPITATION /E.G. RAIN...SNOW...ETC/
    THUNDER OR FOG.

PAZ002>004-007>009-013>016-020>023-029>032-301000-
WESTERN PENNSYLVANIA

CITY           SKY/WX    TMP DP  RH WIND       PRES   REMARKS
ERIE           CLOUDY    41  32  70 W18G36    29.74R
MEADVILLE      CLOUDY    38  34  85 SW12      29.75S
FRANKLIN*      CLOUDY    36  34  93 SW14      29.78S
NEW CASTLE     CLOUDY    39  38  97 SW3       29.82S
BEAVER COUNTY  NOT AVBL
BUTLER*        CLOUDY    37  36  93 SW14G20   29.83S
PITTSBURGH INT LGT RAIN  39  37  92 W9        29.83F FOG
PITTSBURGH     CLOUDY    39  31  72 S10       29.82F
INDIANA*       CLOUDY    37  34  87 SW14G21   29.85S
LATROBE        LGT RAIN  39  36  87 SW15G22   29.86R
WASHINGTON CO* CLOUDY    43  32  65 SW14G21   29.86F
$$

PAZ004>006-010>012-017>019-024>028-033>037-041-042-045-046-049>053-301000-
CENTRAL PENNSYLVANIA

CITY           SKY/WX    TMP DP  RH WIND       PRES   REMARKS
BRADFORD       LGT RAIN  34  30  85 SW7G21    29.70F FOG
DUBOIS         CLOUDY    36  32  85 SW17      29.75F FOG
CLEARFIELD     LGT RAIN  34  32  92 S7        29.78F FOG
JOHNSTOWN      LGT RAIN  35  29  78 SW13      29.78F
ALTOONA        CLOUDY    36  31  82 S13       29.83F
STATE COLLEGE  CLOUDY    34  31  90 SW7       29.81F FOG
WILLIAMSPORT   CLOUDY    39  20  46 SW8G17    29.85F
SELINSGROVE    CLOUDY    37  27  67 S7        29.89F
FT INDIANTOWN  CLOUDY    34  29  80 CALM      29.93F
CAPITAL CITY   CLOUDY    37  26  64 SE3       29.92F
HARRISBURG     CLOUDY    37  27  67 S7        29.92F
YORK           CLOUDY    38  25  59 S6        29.92F
$$

PAZ038>040-043-044-047-048-054-055-060>062-067>071-301000-
EASTERN PENNSYLVANIA

CITY           SKY/WX    TMP DP  RH WIND       PRES   REMARKS
SCRANTON       CLOUDY    33  26  75 SW9       29.88F
MOUNT POCONO   LGT SNOW  27  23  85 SW8       29.85F FOG
ALLENTOWN      CLOUDY    34  29  82 CALM      29.94F
QUAKERTOWN*    CLOUDY    36  25  64 S7        29.95F
READING        CLOUDY    35  28  75 CALM      29.94F
LANCASTER      CLOUDY    35  26  69 S6        29.93F
COATESVILLE    CLOUDY    36  25  64 S6        29.96F
POTTSTOWN      CLOUDY    35  23  61 VRB6      29.96F
BLUE BELL      CLOUDY    37  27  65 S10       29.96F
DOYLESTOWN     CLOUDY    35  20  54 S12G17    29.97F
WILLOW GROVE   NOT AVBL
NORTH PHILA    LGT SNOW  35  27  72 S9        30.01F
PHILADELPHIA   CLOUDY    35  30  82 S13       30.01F
$$


USA.gov is the U.S. government's official web portal to all federal, state and local government web resources and services.